Wind_Speed
2 4 6 7 5 3 5 3 5 2 2 2 5 7 14 6 5 9 9 9 9 11 15 21 21 22 29 35 37 39 39 41 36 33 32 30 31 31 34 35 34 36 35 35
5 5 8 7 8 5 4 4 2 1 2 3 4 10 12 8 7 8 9 9 11 6 7 9 12 16 23 30 37 40 42 40 38 35 36 30 31 30 33 35 36 36 35 36
7 3 9 8 5 7 4 6 4 4 1 2 4 7 7 4 3 5 8 10 6 8 11 10 14 18 19 26 31 37 42 42 41 37 30 28 26 25 29 34 36 36 34 36
3 2 7 5 5 5 5 7 5 4 3 3 2 5 5 6 9 6 11 6 7 7 6 6 11 13 12 17 20 30 35 39 39 36 32 34 31 25 30 31 35 35 36 34
6 9 7 5 6 7 6 6 7 3 4 2 2 1 6 2 6 10 4 4 1 5 5 6 6 8 6 7 11 17 27 32 35 35 34 31 30 28 25 31 31 33 34 35
3 1 5 7 4 4 10 7 7 4 3 2 6 6 4 5 7 3 3 0 4 5 4 4 5 6 5 4 2 8 16 25 29 32 33 30 29 27 27 27 29 29 32 33
1 2 3 5 7 5 3 7 2 1 1 5 3 2 7 7 8 5 5 6 5 4 2 4 5 10 11 9 5 3 7 14 19 24 26 27 27 27 29 28 25 25 28 30
8 4 8 4 7 9 7 7 6 8 4 3 2 7 7 6 4 4 4 4 5 2 1 4 5 8 9 9 8 7 7 8 11 16 19 21 23 25 23 23 22 23 25 25
6 5 0 2 5 10 5 6 4 7 3 3 5 7 9 9 7 3 4 2 5 2 2 4 5 7 7 8 7 7 8 7 8 12 15 17 18 17 16 16 14 14 13 11
7 4 1 3 4 1 7 9 4 2 4 4 5 5 8 1 6 6 5 2 2 1 2 2 3 5 5 5 7 8 8 9 8 8 9 10 11 11 10 9 9 10 9 10
6 4 1 4 7 10 3 4 3 5 5 6 2 7 7 10 7 8 5 5 5 4 4 2 2 3 5 6 7 8 9 9 10 10 11 11 11 10 9 8 7 6 7 9
7 5 4 8 2 2 3 7 7 6 6 2 3 9 3 5 6 8 7 6 4 4 3 3 4 5 6 8 8 9 9 9 9 9 9 10 10 8 7 4 4 5 6 9
9 3 3 5 3 2 4 3 4 5 3 7 6 12 1 4 6 6 7 5 2 3 4 4 5 6 6 8 9 10 10 10 8 7 7 6 6 4 3 4 6 7 8 9
10 4 12 14 5 7 6 7 7 9 3 11 11 14 1 5 7 6 6 5 3 3 4 4 4 6 7 8 9 9 9 7 6 5 5 5 4 2 2 4 6 8 10 10
6 8 6 3 5 4 6 9 14 16 21 10 29 15 10 12 13 13 8 6 6 5 4 4 4 6 7 9 11 10 8 7 5 5 6 6 6 5 4 4 6 8 10 11
2 2 3 3 6 5 2 6 14 23 21 20 13 19 8 10 3 5 8 7 5 5 5 5 6 9 9 7 10 9 8 7 7 8 8 9 9 8 7 6 6 7 9 9
6 5 4 8 8 5 6 25 11 6 6 10 16 19 6 5 9 11 10 7 8 8 7 6 7 9 9 10 9 10 9 9 11 11 11 13 12 11 10 9 7 7 8 9
6 7 4 3 7 9 7 3 18 20 15 14 10 4 7 6 3 4 5 9 9 9 8 7 11 12 11 10 9 10 10 10 10 11 13 13 14 12 11 10 10 9 9 9
6 3 3 4 3 4 4 4 7 10 18 22 17 8 6 5 4 1 6 6 7 7 7 9 9 9 9 8 8 9 10 10 12 14 13 13 13 13 12 11 10 10 10 10
3 4 3 2 4 7 6 2 1 6 11 7 18 18 11 8 7 5 7 6 7 12 11 10 9 9 9 8 7 8 10 9 10 10 11 11 12 13 14 14 13 12 11 11
6 3 9 5 3 7 5 4 3 6 5 2 3 7 8 8 3 5 10 6 12 12 12 10 10 11 8 6 6 8 8 10 8 9 9 9 9 11 12 13 14 14 13 13
10 9 7 2 3 9 8 5 9 4 3 2 2 6 6 6 7 9 8 8 10 13 13 11 12 11 10 8 7 8 8 7 8 9 9 8 9 10 11 13 13 13 14 15
3 6 5 7 6 2 6 2 3 4 4 4 5 5 9 12 7 8 8 8 9 14 14 11 13 12 10 9 9 7 7 7 8 8 9 10 10 11 12 13 14 15 15 15
3 2 3 3 4 4 3 2 2 5 5 5 5 9 12 11 10 8 7 8 9 13 13 12 13 11 9 8 7 7 7 9 10 12 12 13 14 15 13 14 15 17 18 17
3 6 5 5 1 2 5 7 6 5 4 5 6 5 8 15 8 8 7 7 12 12 10 10 10 8 6 5 6 7 8 10 11 13 15 17 18 18 19 19 18 18 20 18
4 6 5 5 7 5 5 7 8 9 9 9 9 8 5 6 9 6 7 12 15 14 10 8 6 5 5 6 6 7 8 11 13 15 17 18 20 22 23 24 26 21 18 16
Wind_Direction
354 109 174 177 187 120 137 137 169 215 25 194 238 262 275 266 264 274 254 257 250 247 259 258 248 239 236 234 231 230 224 224 213 207 207 209 212 217 226 228 226 228 227 227
53 203 200 146 143 128 134 137 218 56 45 197 339 286 272 255 239 225 249 247 244 257 268 256 258 248 240 235 230 228 226 223 213 209 212 210 214 217 225 232 236 234 231 231
158 214 154 137 149 142 152 158 174 184 183 70 338 287 280 306 264 267 248 250 261 258 280 280 269 268 256 241 235 231 227 222 218 210 207 208 208 215 218 225 233 235 240 237
204 95 138 121 163 129 184 200 154 141 109 233 359 280 302 278 293 276 272 272 271 276 280 292 294 289 266 256 247 238 232 223 220 212 204 207 209 210 216 221 226 238 240 241
227 159 149 159 192 160 210 125 142 119 111 55 329 341 263 287 279 264 274 294 55 332 317 317 326 317 305 268 250 239 230 227 222 215 207 209 214 221 229 226 231 234 239 243
170 207 153 172 73 135 150 85 53 57 96 285 204 177 249 199 213 258 154 96 329 332 339 352 17 31 35 20 257 232 217 220 222 221 211 213 217 221 222 224 230 235 239 244
105 201 174 130 87 34 73 108 44 7 359 230 333 170 245 250 232 226 250 300 307 317 351 14 20 33 36 38 56 123 182 204 212 217 215 218 220 224 231 236 234 238 242 242
159 229 168 181 168 165 193 161 160 190 194 229 61 232 255 243 270 256 270 285 300 287 133 61 37 43 43 40 52 85 122 165 185 196 206 212 217 223 231 237 243 248 253 256
154 241 96 140 153 147 203 213 156 103 21 62 219 284 288 260 266 251 233 227 290 294 121 78 61 59 53 53 67 97 124 142 172 190 199 204 214 222 230 235 237 241 240 244
201 123 358 168 114 35 168 153 84 5 138 229 261 269 230 161 202 204 205 177 224 288 50 59 50 59 74 78 75 87 109 129 145 162 174 181 187 196 203 209 214 220 234 245
147 109 356 127 216 167 149 177 93 129 160 177 232 254 215 208 194 189 183 164 159 167 171 179 99 87 89 86 87 93 101 113 126 141 150 158 163 175 186 195 214 227 245 264
179 125 152 201 290 346 354 185 158 171 214 234 150 258 173 201 187 160 170 171 145 136 129 77 68 78 77 84 91 97 104 113 118 130 137 145 146 152 163 178 225 249 257 262
174 201 82 357 342 358 208 199 137 102 83 195 149 260 340 117 148 186 172 181 175 127 93 86 87 86 96 96 99 100 101 102 109 115 121 131 129 139 176 212 235 251 258 264
147 135 204 210 184 138 189 193 189 193 169 224 226 240 208 208 203 220 217 218 196 148 129 122 99 91 95 95 93 93 92 96 102 107 111 89 72 48 324 297 286 282 280 271
143 203 193 171 134 129 188 185 197 204 221 190 244 232 199 203 200 211 198 192 161 154 115 112 95 78 88 89 85 79 74 70 86 103 89 63 32 4 333 307 300 293 286 282
61 176 121 273 154 148 186 224 209 214 226 237 259 259 165 207 108 148 201 180 174 146 136 119 99 98 88 80 83 78 65 56 60 62 61 64 56 31 12 348 343 309 292 286
142 134 140 230 165 108 264 223 202 198 201 209 228 244 162 179 194 197 201 178 171 165 156 143 137 135 122 102 91 82 77 70 67 59 55 50 41 30 17 9 352 328 314 311
152 152 158 161 138 209 256 37 222 219 229 217 253 167 184 196 180 190 155 160 167 167 164 161 151 136 124 114 102 95 82 71 64 53 41 31 27 18 9 1 352 340 329 316
147 147 142 168 197 300 250 204 161 177 243 233 236 202 183 131 97 240 186 156 155 154 153 151 138 126 121 105 92 88 73 58 43 33 21 11 3 360 356 352 344 334 324 314
119 110 137 113 169 212 232 275 152 111 269 235 211 209 167 149 208 209 158 129 119 125 136 136 127 110 98 72 62 63 53 48 37 21 5 356 351 348 346 343 340 335 326 319
190 176 205 178 216 284 223 174 185 141 246 297 215 157 151 196 227 140 126 110 128 124 121 120 106 92 74 59 53 63 60 47 16 356 352 348 343 338 334 333 330 325 320 315
175 184 200 156 183 250 163 95 168 196 182 219 140 150 143 124 121 120 114 122 125 119 111 111 106 91 75 69 70 77 54 12 356 348 345 339 336 332 328 325 322 318 314 312
207 184 180 190 209 199 199 151 138 169 174 199 165 152 133 132 131 132 134 128 121 119 113 115 120 111 77 64 56 63 23 357 347 344 342 339 337 329 321 315 312 308 307 304
265 182 162 94 223 226 230 218 230 192 212 182 167 146 148 142 149 140 135 132 125 126 117 119 122 110 82 55 41 29 357 344 337 334 337 339 335 331 327 314 307 302 300 298
193 133 167 273 206 321 261 230 211 193 171 133 112 135 146 145 141 138 135 131 132 132 127 120 114 106 77 37 17 359 346 338 333 335 335 334 331 328 323 318 313 303 297 289
185 177 177 217 196 189 219 211 169 171 175 165 143 129 118 129 139 130 130 137 142 139 134 116 89 68 44 26 12 357 348 343 340 337 336 334 330 327 325 322 316 312 305 286
Height
809 816 825 821 823 821 830 835 835 832 830 834 837 838 822 823 821 818 818 817 814 810 801 803 806 806 808 811 816 819 823 825 831 835 839 843 845 849 851 855 859 861 865 867
817 824 817 814 822 825 828 832 835 830 833 835 836 834 824 818 814 808 806 808 807 803 799 799 801 802 802 802 804 810 813 817 821 827 831 836 840 844 847 851 854 856 859 862
817 808 814 813 823 827 829 834 834 830 838 840 842 835 824 809 810 805 801 800 801 801 800 795 795 795 795 796 798 801 805 809 812 818 826 830 836 838 842 843 847 850 853 855
808 810 816 817 821 824 834 827 827 832 839 849 845 847 829 814 813 805 794 797 798 798 796 794 791 789 788 789 792 794 797 803 807 813 819 822 826 831 832 836 839 843 847 849
809 812 816 815 813 816 822 829 832 834 846 845 847 850 828 820 809 795 788 794 794 795 795 793 789 786 785 784 786 788 791 798 802 807 813 817 822 825 829 832 835 837 841 844
806 807 806 805 816 814 828 833 843 853 852 855 846 840 824 814 800 791 788 791 794 795 794 792 789 786 784 783 784 784 786 792 798 803 808 814 817 821 824 827 831 833 836 838
806 806 804 804 818 822 821 830 854 855 864 850 856 846 810 799 795 792 789 792 793 793 793 792 789 786 785 785 784 783 785 790 795 800 806 810 813 817 821 824 827 830 831 832
809 818 806 799 802 815 826 821 840 853 857 843 853 837 804 793 792 790 792 792 792 791 793 791 790 788 789 789 788 787 787 790 794 798 802 806 809 813 817 821 823 826 827 829
800 797 795 795 799 799 817 821 815 849 911 865 838 822 800 787 790 789 791 790 791 790 791 791 791 790 791 791 790 789 790 792 795 797 800 803 807 812 815 817 819 823 825 827
780 793 799 796 794 796 799 804 825 843 865 862 829 824 796 786 786 789 789 789 792 791 791 791 791 791 791 793 792 792 791 793 796 798 801 803 805 809 812 815 817 820 822 824
774 779 804 798 797 796 803 806 811 814 826 833 846 809 791 776 780 787 789 790 791 792 793 793 791 791 791 792 793 794 794 796 797 799 800 802 804 808 811 812 816 817 818 821
766 782 804 798 794 794 790 788 793 802 821 832 830 791 781 781 783 787 790 790 790 791 792 791 791 791 791 792 794 796 797 798 800 801 802 804 804 807 809 811 814 815 816 818
763 790 823 809 799 798 793 792 792 800 810 819 821 778 789 788 789 788 788 789 789 788 790 791 792 793 793 793 794 795 797 798 801 804 804 807 806 807 809 810 812 813 813 814
751 778 764 764 771 782 792 791 786 782 811 788 793 767 784 787 787 787 786 788 787 790 792 793 794 795 794 795 795 796 798 800 801 803 805 804 805 806 808 810 811 812 812 812
753 765 771 769 777 780 783 779 780 779 769 785 747 774 776 781 783 780 782 785 789 791 792 792 794 795 796 796 795 797 799 801 803 803 801 803 803 805 806 806 807 809 809 810
759 769 772 781 775 776 782 783 777 768 765 763 762 763 763 767 778 780 780 783 786 791 794 794 794 795 797 799 796 797 800 803 803 802 803 800 800 802 804 806 805 806 807 806
762 768 768 759 775 783 779 756 778 776 774 764 767 739 760 770 771 773 777 782 785 788 792 793 792 794 795 795 797 798 800 801 801 803 803 799 800 802 803 801 801 802 804 802
763 767 768 769 769 762 745 757 748 754 750 757 753 754 756 755 761 764 768 775 782 785 786 788 788 790 792 794 796 797 798 799 801 801 800 800 798 801 801 800 799 799 799 799
754 761 759 758 759 769 742 759 760 758 744 739 747 756 758 766 766 768 769 770 775 780 785 788 790 792 794 794 795 795 796 798 798 799 800 801 801 801 800 800 799 798 798 797
758 757 754 774 760 773 762 754 751 749 744 742 734 739 759 765 761 762 768 771 777 781 786 789 792 793 794 796 796 796 796 797 798 800 801 802 801 801 800 798 797 797 795 793
749 753 745 760 775 770 749 749 751 761 750 745 740 743 757 754 753 758 766 773 777 781 786 789 791 792 794 796 797 797 798 799 801 801 800 800 800 799 799 797 796 795 794 792
740 744 744 758 759 745 746 750 747 741 747 745 745 746 754 760 762 764 769 774 778 781 785 788 790 794 796 796 796 798 799 800 800 800 800 800 799 797 796 795 793 792 790 788
747 738 744 740 732 735 741 738 738 741 740 744 745 748 750 758 763 766 772 776 780 783 786 789 791 795 797 798 797 798 799 800 800 799 798 797 796 795 793 792 791 789 787 785
755 748 748 742 733 735 736 739 738 739 740 741 742 744 748 755 762 766 770 775 780 784 788 791 793 795 797 798 797 798 798 798 798 797 795 794 792 791 790 789 787 784 782 781
742 745 754 750 741 740 737 738 734 738 740 743 744 746 749 753 761 765 771 775 780 785 788 790 792 794 795 796 796 796 796 796 796 794 792 790 790 788 786 784 782 780 778 777
743 742 738 736 728 724 723 725 731 736 738 740 741 749 753 755 760 766 773 776 780 784 787 789 790 790 791 792 793 794 794 793 791 790 788 788 786 784 782 779 775 775 773 772